Location: Piolenc
(44.1794°N, 4.7641°E)
Time: 04:51:27
(UTC+00:00)

Cosmos 2279 Rocket - Pass Details

Date: 27 January 2021
Orbit: 964 x 979 km, 82.9° (Epoch: 27 February)

Event Time Altitude Azimuth Distance (km) Brightness Sun altitude
Rises 06:20:48 0° 204° (SSW) 3,659 6.9 -8.0°
Reaches altitude 10° 06:23:24 10° 210° (SSW) 2,718 6.2 -7.6°
Maximum altitude 06:29:23 48° 284° (WNW) 1,265 4.2 -6.6°
Drops below altitude 10° 06:35:26 10° 358° (N) 2,740 6.1 -5.5°
Sets 06:38:05 0° 4° (N) 3,693 6.9 -5.1°
